Location: Newark
(6.1731°S, 35.7419°E)
Time: 22:03:20
(UTC+00:00)

Vanguard 1 Rocket - Visible Passes

Search period start: 17 February 2020 00:00
Search period end: 27 February 2020 00:00
Orbit: 650 x 4226 km, 34.3° (Epoch: 17 February)

Date Brightness Start Highest point End Pass type
(mag) Time Alt. Az. Time Alt. Az. Time Alt. Az.
17 Feb 10.7 17:05:39 10° SW 17:28:53 37° SSE 17:41:35 19° ESE visible
17 Feb 10.0 19:40:48 10° SW 19:58:51 58° SSW 19:58:51 58° SSW visible
18 Feb 11.2 15:49:04 10° SW 16:11:13 33° S 16:30:13 10° ESE visible
18 Feb 10.0 18:24:38 10° SW 18:48:44 54° SSE 18:51:26 51° SE visible
18 Feb 10.8 20:59:57 10° WSW 21:08:42 29° WSW 21:08:42 29° WSW visible
19 Feb 10.5 17:08:34 10° SW 17:32:50 43° SSE 17:44:04 25° ESE visible
19 Feb 10.0 19:43:15 10° SW 20:01:20 60° SW 20:01:20 60° SW visible
20 Feb 11.1 15:52:38 10° SW 16:15:32 36° SSE 16:34:47 10° ESE visible
20 Feb 9.8 18:27:03 10° SW 18:52:03 65° SSE 18:54:00 63° SE visible
20 Feb 10.9 21:03:06 10° WSW 21:11:17 26° WSW 21:11:17 26° WSW visible
21 Feb 10.3 17:11:14 10° SW 17:36:29 50° SSE 17:46:44 31° E visible
21 Feb 10.1 19:45:52 10° WSW 20:04:00 58° WSW 20:04:00 58° WSW visible
22 Feb 11.0 15:55:49 10° SW 16:19:36 40° SSE 16:39:12 10° E visible
22 Feb 9.7 18:29:28 10° SW 18:55:05 78° SE 18:56:47 74° ESE visible
22 Feb 11.1 21:06:40 10° WSW 21:14:03 23° W 21:14:03 23° W visible
23 Feb 10.2 17:13:48 10° SW 17:39:51 59° SSE 17:49:36 37° E visible
23 Feb 10.2 19:48:42 10° WSW 20:06:53 53° W 20:06:53 53° W visible
24 Feb 10.9 15:58:44 10° SW 16:23:21 46° SSE 16:42:28 12° E visible
24 Feb 9.7 18:31:59 10° SW 18:57:52 89° NW 18:59:46 79° NE visible
24 Feb 11.2 21:10:49 10° W 21:17:03 19° W 21:17:03 19° W visible
25 Feb 10.1 17:16:18 10° SW 17:42:56 70° SSE 17:52:42 40° ENE visible
25 Feb 10.4 19:51:52 10° WSW 20:10:00 46° WNW 20:10:00 46° WNW visible
26 Feb 10.8 16:01:27 10° SW 16:26:47 54° SSE 16:45:42 14° E visible
26 Feb 9.8 18:34:40 10° WSW 19:00:26 75° NW 19:02:59 70° N visible
26 Feb 11.3 21:15:44 10° W 21:20:18 16° W 21:20:18 16° W visible
